TimeCDT,TemperatureF,Dew PointF,Humidity,Sea Level PressureIn,VisibilityMPH,Wind Direction,Wind SpeedMPH,Gust SpeedMPH,PrecipitationIn,Events,Conditions,WindDirDegrees,DateUTC
12:15 AM,59.0,53.6,82,30.18,10.0,West,4.6,-,N/A,,Clear,270,2013-08-16 05:15:00
12:55 AM,59.0,53.6,82,30.17,10.0,WNW,4.6,-,N/A,,Clear,290,2013-08-16 05:55:00
1:15 AM,59.0,53.6,82,30.17,10.0,NW,3.5,-,N/A,,Clear,310,2013-08-16 06:15:00
1:35 AM,57.2,53.6,88,30.17,10.0,Calm,Calm,-,N/A,,Clear,0,2013-08-16 06:35:00
1:55 AM,57.2,53.6,88,30.17,10.0,NNW,3.5,-,N/A,,Clear,330,2013-08-16 06:55:00
2:15 AM,57.2,53.6,88,30.17,10.0,North,4.6,-,N/A,,Clear,350,2013-08-16 07:15:00
2:35 AM,57.2,53.6,88,30.17,10.0,NNE,4.6,-,N/A,,Clear,30,2013-08-16 07:35:00
2:55 AM,55.4,53.6,94,30.17,10.0,NE,4.6,-,N/A,,Clear,40,2013-08-16 07:55:00
3:15 AM,55.4,51.8,88,30.17,10.0,Calm,Calm,-,N/A,,Clear,0,2013-08-16 08:15:00
3:35 AM,55.4,51.8,88,30.17,8.0,Calm,Calm,-,N/A,,Clear,0,2013-08-16 08:35:00
3:55 AM,55.4,51.8,88,30.17,10.0,NNE,4.6,-,N/A,,Clear,20,2013-08-16 08:55:00
4:15 AM,55.4,51.8,88,30.18,10.0,Calm,Calm,-,N/A,,Clear,0,2013-08-16 09:15:00
4:35 AM,53.6,51.8,94,30.18,10.0,NNE,3.5,-,N/A,,Clear,20,2013-08-16 09:35:00
4:55 AM,55.4,51.8,88,30.18,10.0,Calm,Calm,-,N/A,,Clear,0,2013-08-16 09:55:00
5:15 AM,55.4,51.8,88,30.18,10.0,Calm,Calm,-,N/A,,Clear,0,2013-08-16 10:15:00
5:35 AM,53.6,51.8,94,30.19,10.0,North,3.5,-,N/A,,Clear,10,2013-08-16 10:35:00
5:55 AM,53.6,50.0,88,30.19,10.0,Calm,Calm,-,N/A,,Clear,0,2013-08-16 10:55:00
6:15 AM,55.4,51.8,88,30.19,9.0,Calm,Calm,-,N/A,,Clear,0,2013-08-16 11:15:00
6:35 AM,53.6,51.8,94,30.19,7.0,Calm,Calm,-,N/A,,Clear,0,2013-08-16 11:35:00
6:55 AM,53.6,51.8,94,30.20,7.0,Calm,Calm,-,N/A,,Clear,0,2013-08-16 11:55:00
7:15 AM,55.4,51.8,88,30.21,8.0,Calm,Calm,-,N/A,,Clear,0,2013-08-16 12:15:00
7:35 AM,57.2,53.6,88,30.21,7.0,Calm,Calm,-,N/A,,Clear,0,2013-08-16 12:35:00
7:55 AM,59.0,53.6,82,30.22,9.0,Calm,Calm,-,N/A,,Clear,0,2013-08-16 12:55:00
8:15 AM,60.8,55.4,82,30.22,10.0,Calm,Calm,-,N/A,,Clear,0,2013-08-16 13:15:00
8:55 AM,64.4,57.2,77,30.22,10.0,Calm,Calm,-,N/A,,Unknown,0,2013-08-16 13:55:00
9:15 AM,66.2,57.2,73,30.23,10.0,Calm,Calm,-,N/A,,Partly Cloudy,0,2013-08-16 14:15:00
9:35 AM,68.0,57.2,68,30.23,8.0,Calm,Calm,-,N/A,,Partly Cloudy,0,2013-08-16 14:35:00
9:55 AM,69.8,57.2,64,30.23,-9999.0,Calm,Calm,-,N/A,,Clear,0,2013-08-16 14:55:00
10:15 AM,71.6,51.8,50,30.23,10.0,Calm,Calm,-,N/A,,Clear,0,2013-08-16 15:15:00
10:35 AM,71.6,55.4,57,30.23,10.0,Calm,Calm,-,N/A,,Clear,0,2013-08-16 15:35:00
10:55 AM,71.6,51.8,50,30.23,10.0,Variable,3.5,-,N/A,,Clear,0,2013-08-16 15:55:00
11:15 AM,71.6,51.8,50,30.23,10.0,Variable,3.5,-,N/A,,Clear,0,2013-08-16 16:15:00
11:35 AM,73.4,51.8,47,30.23,10.0,Variable,4.6,-,N/A,,Clear,0,2013-08-16 16:35:00
11:55 AM,73.4,53.6,50,30.23,10.0,SW,5.8,-,N/A,,Clear,220,2013-08-16 16:55:00
12:15 PM,75.2,53.6,47,30.23,10.0,Variable,3.5,-,N/A,,Clear,0,2013-08-16 17:15:00
12:35 PM,75.2,51.8,44,30.22,10.0,SSE,6.9,-,N/A,,Clear,160,2013-08-16 17:35:00
12:55 PM,75.2,51.8,44,30.22,10.0,Calm,Calm,-,N/A,,Partly Cloudy,0,2013-08-16 17:55:00
1:15 PM,75.2,51.8,44,30.21,10.0,WSW,3.5,-,N/A,,Scattered Clouds,240,2013-08-16 18:15:00
1:35 PM,73.4,50.0,44,30.21,10.0,Calm,Calm,-,N/A,,Scattered Clouds,0,2013-08-16 18:35:00
1:55 PM,75.2,51.8,44,30.21,10.0,SSE,9.2,-,N/A,,Scattered Clouds,150,2013-08-16 18:55:00
2:15 PM,75.2,51.8,44,30.20,10.0,Calm,Calm,-,N/A,,Mostly Cloudy,0,2013-08-16 19:15:00
2:35 PM,77.0,51.8,41,30.20,10.0,SSW,5.8,-,N/A,,Mostly Cloudy,210,2013-08-16 19:35:00
2:55 PM,77.0,51.8,41,30.20,10.0,South,9.2,-,N/A,,Overcast,190,2013-08-16 19:55:00
3:15 PM,77.0,51.8,41,30.20,10.0,SSE,4.6,-,N/A,,Mostly Cloudy,150,2013-08-16 20:15:00
3:35 PM,77.0,50.0,39,30.20,10.0,SE,4.6,-,N/A,,Scattered Clouds,130,2013-08-16 20:35:00
3:55 PM,75.2,50.0,41,30.19,10.0,Calm,Calm,-,N/A,,Mostly Cloudy,0,2013-08-16 20:55:00
4:15 PM,75.2,48.2,38,30.19,10.0,Calm,Calm,-,N/A,,Scattered Clouds,0,2013-08-16 21:15:00
4:35 PM,77.0,50.0,39,30.19,10.0,ESE,5.8,-,N/A,,Partly Cloudy,120,2013-08-16 21:35:00
4:55 PM,75.2,50.0,41,30.19,10.0,SE,4.6,-,N/A,,Scattered Clouds,130,2013-08-16 21:55:00
5:15 PM,75.2,51.8,44,30.19,10.0,Calm,Calm,-,N/A,,Scattered Clouds,0,2013-08-16 22:15:00
5:35 PM,75.2,51.8,44,30.19,10.0,Calm,Calm,-,N/A,,Clear,0,2013-08-16 22:35:00
5:55 PM,75.2,51.8,44,30.19,10.0,Calm,Calm,-,N/A,,Clear,0,2013-08-16 22:55:00
6:15 PM,75.2,51.8,44,30.19,10.0,South,5.8,-,N/A,,Clear,180,2013-08-16 23:15:00
6:35 PM,75.2,53.6,47,30.19,10.0,South,4.6,-,N/A,,Clear,190,2013-08-16 23:35:00
6:55 PM,75.2,51.8,44,30.19,10.0,South,4.6,-,N/A,,Clear,190,2013-08-16 23:55:00
7:15 PM,73.4,53.6,50,30.19,10.0,SSW,4.6,-,N/A,,Clear,200,2013-08-17 00:15:00
7:35 PM,73.4,55.4,53,30.19,10.0,SSW,4.6,-,N/A,,Clear,210,2013-08-17 00:35:00
7:55 PM,71.6,55.4,57,30.20,10.0,Calm,Calm,-,N/A,,Mostly Cloudy,0,2013-08-17 00:55:00
8:15 PM,71.6,55.4,57,30.20,10.0,Calm,Calm,-,N/A,,Mostly Cloudy,0,2013-08-17 01:15:00
8:35 PM,69.8,55.4,60,30.20,10.0,SSW,3.5,-,N/A,,Clear,210,2013-08-17 01:35:00
8:55 PM,68.0,57.2,68,30.21,10.0,Calm,Calm,-,N/A,,Clear,0,2013-08-17 01:55:00
9:15 PM,68.0,55.4,64,30.21,10.0,Calm,Calm,-,N/A,,Clear,0,2013-08-17 02:15:00
9:35 PM,66.2,57.2,73,30.21,10.0,Calm,Calm,-,N/A,,Clear,0,2013-08-17 02:35:00
9:55 PM,66.2,55.4,68,30.21,10.0,Calm,Calm,-,N/A,,Clear,0,2013-08-17 02:55:00
10:15 PM,64.4,57.2,77,30.21,10.0,Calm,Calm,-,N/A,,Clear,0,2013-08-17 03:15:00
10:35 PM,64.4,55.4,73,30.21,10.0,Calm,Calm,-,N/A,,Clear,0,2013-08-17 03:35:00
10:55 PM,64.4,55.4,73,30.21,10.0,Calm,Calm,-,N/A,,Clear,0,2013-08-17 03:55:00
11:15 PM,62.6,55.4,77,30.21,10.0,Calm,Calm,-,N/A,,Scattered Clouds,0,2013-08-17 04:15:00
11:35 PM,62.6,57.2,82,30.21,10.0,Calm,Calm,-,N/A,,Partly Cloudy,0,2013-08-17 04:35:00
11:55 PM,62.6,57.2,82,30.21,10.0,Calm,Calm,-,N/A,,Clear,0,2013-08-17 04:55:00